Terminal Aerodrome Forecast
Issued by NWS

Home | Current Version | Previous Version | Text Only | Print | Product List | Glossary On
Versions: 1 2 3 4 5 6 7 8 9 10 11 12 13 14 15 16 17
000
FTUS46 KMTR 272323
TAFSNS
TAF
KSNS 272323Z 2800/2824 25014G22KT P6SM SCT250
     FM280400 26011KT P6SM FEW015 SCT250
     FM281800 29014G20KT P6SM SCT250=

USA.gov is the U.S. government's official web portal to all federal, state and local government web resources and services.